Flag for Spain Weather past 2 weeks in Las Palmas, Canary Islands, Spain

Now
66 °F

Passing clouds.


Feels Like: 66 °F
Forecast: 64 / 71 °F
Wind: 14 mph from Northeast

Location: Las Palmas De Gran Canaria / Gando


UV Index: 7 (High)

Visibility: N/A


Pressure: 30.04 "Hg

Humidity: 78%

Dew point: 59 °F

Location of Las PalmasLocation

Historic Weather in Las Palmas

°F

Las Palmas temperature yesterday

Maximum temperature yesterday: 73 °F (at 1:00 PM)
Minimum temperature yesterday: 63 °F (at 6:00 AM)
Average temperature yesterday: 68 °F

Past Weeks' High & Low Weather Summary

 TemperatureHumidityPressure
High86 °F (Apr 13, 3:00 PM)88% (Apr 11, 5:30 AM)30.21 "Hg (Apr 11, 5:30 AM)
Low61 °F (Apr 3, 1:30 AM)31% (Apr 13, 3:00 PM)29.80 "Hg (Apr 2, 6:00 AM)
Average67 °F72%30.01 "Hg
* Reported Apr 2 6:00 AM — Apr 17 6:30 AM, Las Palmas, Weather by CustomWeather, © 2014

Note: Actual official high and low records may vary slightly from our data, if they occured in-between our weather recording intervals... More about our weather records

Advertising

Historic Weather Conditions — Data for Previous 24 hours

 ConditionsComfort  
Time TempWeatherWind HumidityBarometerVisibility
6:30 AM
Apr 17
66 °FPassing clouds.14 mph78%30.04 "HgN/A
6:00 AM66 °FPassing clouds.9 mph78%30.07 "HgN/A
5:30 AM66 °FPassing clouds.10 mph78%30.04 "HgN/A
5:00 AM64 °FPassing clouds.8 mph78%30.07 "HgN/A
4:30 AM66 °FPassing clouds.8 mph73%30.07 "HgN/A
4:00 AM66 °FPassing clouds.9 mph73%30.07 "HgN/A
3:30 AM66 °FPassing clouds.8 mph73%30.07 "HgN/A
3:00 AM64 °FPassing clouds.9 mph73%30.07 "HgN/A
2:30 AM66 °FPassing clouds.9 mph73%30.07 "HgN/A
2:00 AM66 °FPassing clouds.8 mph73%30.07 "HgN/A
1:30 AM66 °FPassing clouds.10 mph73%30.09 "HgN/A
1:00 AM66 °FPassing clouds.9 mph73%30.09 "HgN/A
12:30 AM66 °FPassing clouds.8 mph78%30.09 "HgN/A
12:00 AM66 °FPassing clouds.8 mph78%30.09 "HgN/A
11:30 PM
Apr 16
66 °FPassing clouds.9 mph78%30.09 "HgN/A
11:00 PM66 °FPassing clouds.12 mph83%30.09 "HgN/A
10:30 PM66 °FPassing clouds.10 mph83%30.09 "HgN/A
10:00 PM68 °FPassing clouds.12 mph78%30.09 "HgN/A
9:30 PM68 °FPassing clouds.10 mph78%30.07 "HgN/A
9:00 PM68 °FPassing clouds.10 mph78%30.07 "HgN/A
8:30 PM68 °FPassing clouds.12 mph78%30.04 "HgN/A
8:00 PM68 °FPassing clouds.12 mph73%30.04 "HgN/A
7:30 PM70 °FPassing clouds.13 mph73%30.04 "HgN/A
7:00 PM70 °FPassing clouds.13 mph73%30.04 "HgN/A
6:30 PM72 °FPassing clouds.13 mph65%30.04 "HgN/A
6:00 PM70 °FPassing clouds.13 mph73%30.04 "HgN/A
5:30 PM72 °FPassing clouds.12 mph61%30.04 "HgN/A
5:00 PM73 °FScattered clouds.12 mph57%30.04 "HgN/A
4:30 PM73 °FScattered clouds.12 mph50%30.04 "HgN/A
4:00 PM72 °FScattered clouds.12 mph57%30.04 "HgN/A
3:30 PM72 °FPartly sunny.12 mph69%30.07 "HgN/A
3:00 PM70 °FPartly sunny.10 mph73%30.07 "HgN/A
2:00 PM72 °FBroken clouds.13 mph65%30.09 "HgN/A
1:30 PM72 °FScattered clouds.12 mph69%30.09 "HgN/A
1:00 PM73 °FPassing clouds.13 mph65%30.09 "HgN/A
12:30 PM72 °FPassing clouds.14 mph69%30.09 "HgN/A
12:00 PM70 °FPassing clouds.14 mph73%30.09 "HgN/A
11:30 AM72 °FPassing clouds.12 mph69%30.09 "HgN/A
11:00 AM70 °FPassing clouds.12 mph73%30.09 "HgN/A
10:30 AM70 °FPassing clouds.13 mph73%30.09 "HgN/A
10:00 AM68 °FScattered clouds.7 mph78%30.07 "HgN/A
9:30 AM66 °FScattered clouds.7 mph78%30.07 "HgN/A
9:00 AM64 °FPassing clouds.7 mph78%30.07 "HgN/A
8:30 AM64 °FPassing clouds.5 mph78%30.07 "HgN/A
8:00 AM64 °FPassing clouds.6 mph78%30.07 "HgN/A
7:30 AM63 °FPassing clouds.7 mph77%30.04 "HgN/A
7:00 AM64 °FPassing clouds.7 mph78%30.04 "HgN/A
Weather by CustomWeather, © 2014

See weather overview